Gwinn, MI

8:13 PM EDT on April 27, 2017 (GMT -0400)
Sawyer International

Weather History for KSAW - January, 2013

Change the Weather History Date:

Tuesday, January 29, 2013

  Actual Average (KESC) Record (KESC)
Temperature  
Mean Temperature 32 °F -  
Max Temperature 35 °F 24 °F 39 °F (1968)
Min Temperature 30 °F 7 °F -17 °F (1951)
Degree Days  
Heating Degree Days 32    
Moisture  
Dew Point 31 °F    
Average Humidity 93    
Maximum Humidity 100    
Minimum Humidity 87    
Precipitation  
Precipitation 0.00 in - - ()
Sea Level Pressure  
Sea Level Pressure 29.62 in    
Wind  
Wind Speed 14 mph (SSW)    
Max Wind Speed 21 mph    
Max Gust Speed 26 mph    
Visibility 8 miles    
Events Fog , Rain    
Averages and records for this station are not official NWS values.
T = Trace of Precipitation, MM = Missing Value Source: NWS Daily Summary

Daily Weather History Graph

Daily Weather History Graph

Search for Another Location

Airport or City:

Trip Planner

Search our weather history database for the weather conditions in past years. The results will help you decide how hot, cold, wet, or windy it might be!

Date:

Astronomy

Jan. 29, 2013 Rise Set
Actual Time 8:16 AM EST 5:50 PM EST
Civil Twilight 7:43 AM EST 6:22 PM EST
Nautical Twilight 7:07 AM EST 6:58 PM EST
Astronomical Twilight 6:32 AM EST 7:34 PM EST
Moon 8:59 PM EST (1/29) 9:00 AM EST (1/29)
Length of Visible Light 10h 38m
Length of Day
9h 34m
Waning Gibbous, 94% of the Moon is Illuminated
Jan 29
Waning Gibbous
Feb 3
Last Quarter
Feb 10
New
Feb 17
First Quarter
Feb 25
Full

Hourly Weather History & Observations

Time (EST) Temp. Windchill Dew Point Humidity Pressure Visibility Wind Dir Wind Speed Gust Speed Precip Events Conditions
12:17 AM 31.1 °F 20.5 °F 29.3 °F 93% 29.84 in 10.0 mi South 15.0 mph 20.7 mph N/A   Overcast
12:37 AM 31.1 °F 19.3 °F 29.1 °F 92% 29.83 in 10.0 mi South 18.4 mph 24.2 mph N/A   Overcast
1:01 AM 31.1 °F 19.7 °F 29.1 °F 92% 29.82 in 10.0 mi South 17.3 mph 23.0 mph N/A   Overcast
1:17 AM 30.9 °F 19.1 °F 28.9 °F 92% 29.81 in 10.0 mi South 18.4 mph 24.2 mph N/A   Overcast
1:37 AM 30.9 °F 18.7 °F 28.6 °F 91% 29.80 in 10.0 mi South 19.6 mph 25.3 mph N/A   Overcast
1:56 AM 30.9 °F 20.2 °F 28.4 °F 90% 29.78 in 10.0 mi South 15.0 mph 21.9 mph N/A   Overcast
2:17 AM 30.9 °F 19.8 °F 28.9 °F 92% 29.77 in 10.0 mi South 16.1 mph - N/A   Overcast
2:37 AM 31.1 °F 20.5 °F 29.3 °F 93% 29.76 in 10.0 mi South 15.0 mph 19.6 mph N/A   Overcast
2:57 AM 31.1 °F 20.9 °F 29.8 °F 95% 29.74 in 10.0 mi South 13.8 mph 21.9 mph N/A   Overcast
3:17 AM 31.1 °F 21.9 °F 29.8 °F 95% 29.70 in 10.0 mi South 11.5 mph 17.3 mph N/A   Overcast
3:41 AM 31.1 °F 21.4 °F 29.8 °F 95% 29.71 in 10.0 mi South 12.7 mph - N/A   Overcast
3:57 AM 31.1 °F 21.4 °F 30.0 °F 96% 29.70 in 7.0 mi South 12.7 mph 23.0 mph N/A   Overcast
4:17 AM 31.1 °F 18.6 °F 30.0 °F 96% 29.70 in 10.0 mi South 20.7 mph - N/A   Overcast
4:37 AM 31.1 °F 20.5 °F 30.0 °F 96% 29.69 in 7.0 mi South 15.0 mph - N/A   Overcast
5:02 AM 31.1 °F 19.3 °F 30.0 °F 96% 29.69 in 7.0 mi South 18.4 mph 26.5 mph N/A   Overcast
5:16 AM 30.9 °F 19.8 °F 29.8 °F 96% 29.67 in 7.0 mi South 16.1 mph 24.2 mph N/A   Overcast
5:37 AM 31.1 °F 21.9 °F 30.0 °F 96% 29.65 in 7.0 mi South 11.5 mph - N/A   Overcast
5:57 AM 31.8 °F 23.9 °F 30.6 °F 95% 29.65 in 5.0 mi South 9.2 mph - N/A   Overcast
6:00 AM 32.0 °F 24.8 °F 30.2 °F 93% 29.65 in 2.5 mi South 8.1 mph - N/A Rain Light Freezing Rain
6:50 AM 32.0 °F 23.6 °F 30.2 °F 93% 29.62 in 7.0 mi South 10.4 mph - N/A Rain Light Freezing Rain
7:50 AM 32.0 °F 21.6 °F 30.2 °F 93% 29.57 in 5.0 mi South 15.0 mph - N/A Rain Light Rain
8:55 AM 32.0 °F 22.5 °F 30.2 °F 93% 29.54 in 2.0 mi South 12.7 mph - N/A   Overcast
9:50 AM 32.0 °F 22.5 °F 32.0 °F 100% 29.52 in 0.5 mi South 12.7 mph - N/A Fog Fog
11:50 AM 33.8 °F 24.3 °F 32.0 °F 93% 29.45 in 0.2 mi South 13.8 mph - N/A Fog Fog
12:50 PM 33.8 °F 25.8 °F 32.0 °F 93% 29.45 in 0.2 mi SW 10.4 mph - N/A Fog Fog
1:50 PM 33.8 °F 26.4 °F 32.0 °F 93% 29.47 in 0.5 mi WSW 9.2 mph - N/A Fog Light Drizzle
2:30 PM 33.8 °F 28.6 °F 33.8 °F 100% 29.45 in 2.0 mi WSW 5.8 mph - N/A   Overcast
2:50 PM 33.8 °F 29.6 °F 33.8 °F 100% 29.46 in 7.0 mi West 4.6 mph - N/A   Overcast
3:50 PM 35.6 °F - 33.8 °F 93% 29.48 in 10.0 mi Calm Calm - N/A   Overcast
4:50 PM 35.6 °F 30.7 °F 33.8 °F 93% 29.52 in 10.0 mi NW 5.8 mph - N/A   Overcast
5:15 PM 35.6 °F 29.9 °F 33.8 °F 93% 29.52 in 0.5 mi NNW 6.9 mph - N/A Fog Fog
5:50 PM 33.8 °F 27.0 °F 33.8 °F 100% 29.53 in 10.0 mi NNW 8.1 mph - N/A   Overcast
6:50 PM 33.8 °F 26.4 °F 32.0 °F 93% 29.53 in 10.0 mi NNW 9.2 mph - N/A   Mostly Cloudy
7:50 PM 33.8 °F 27.0 °F 32.0 °F 93% 29.54 in 10.0 mi NNW 8.1 mph - N/A   Overcast
8:55 PM 32.0 °F 26.4 °F 30.2 °F 93% 29.55 in 10.0 mi North 5.8 mph - N/A   Overcast
9:50 PM 32.0 °F 22.1 °F 30.2 °F 93% 29.53 in 10.0 mi North 13.8 mph - N/A   Overcast
10:17 PM 32.4 °F 24.0 °F 29.7 °F 90% 29.54 in 10.0 mi North 10.4 mph - N/A   Overcast
10:36 PM 32.4 °F 23.0 °F 29.3 °F 88% 29.54 in 10.0 mi North 12.7 mph - N/A   Overcast
10:57 PM 32.2 °F 21.1 °F 29.1 °F 88% 29.53 in 10.0 mi North 17.3 mph 24.2 mph N/A   Overcast
11:16 PM 32.0 °F 21.2 °F 28.8 °F 88% 29.52 in 10.0 mi North 16.1 mph 24.2 mph N/A   Overcast
11:37 PM 32.0 °F 20.8 °F 28.8 °F 88% 29.51 in 10.0 mi North 17.3 mph - N/A   Overcast
11:57 PM 32.0 °F 21.6 °F 28.4 °F 87% 29.53 in 10.0 mi North 15.0 mph - N/A   Overcast